Waarnemingen

Advertentie
Mijn weer
St-Hubert, België (6476): temperatuur & dauwpunt: 13.06.2018 16:00:00 - 19.06.2018 16:00:00 (CEST)St-Hubert, België (6476): windsnelheid & windstoten: 13.06.2018 16:00:00 - 19.06.2018 16:00:00 (CEST)St-Hubert, België (6476): windrichting: 13.06.2018 16:00:00 - 19.06.2018 16:00:00 (CEST)St-Hubert, België (6476): luchtdruk: 13.06.2018 16:00:00 - 19.06.2018 16:00:00 (CEST)St-Hubert, België (6476): zicht: 13.06.2018 16:00:00 - 19.06.2018 16:00:00 (CEST)
Datum & Tijd tt [°C] td [°C] ff [km/u] ff [kn] fx [km/u] fx [kn] dd ppp [hPa] vv [km]
19.06.2018 16:00:00 16,6 14,3 11 6 14 8 W 1025,3 35
19.06.2018 15:00:00 16,4 13,9 7 4 14 8 WZW 1025,3 40
19.06.2018 14:00:00 16,0 13,9 7 4 - - WZW 1025,6 40
19.06.2018 13:00:00 15,3 13,6 11 6 18 10 WZW 1025,5 35
19.06.2018 12:00:00 14,6 13,3 11 6 18 10 W 1025,6 -
19.06.2018 11:00:00 14,2 13,2 11 6 - - WZW 1025,4 2,9
19.06.2018 10:00:00 13,5 12,5 7 4 14 8 WZW 1025,5 2,3
19.06.2018 09:00:00 13,3 12,4 7 4 14 8 WZW 1025,2 -
19.06.2018 08:00:00 12,8 12,0 7 4 - - W 1025,1 0,3
19.06.2018 07:00:00 12,5 11,8 7 4 14 8 W 1025,0 0,1
19.06.2018 06:00:00 12,3 11,5 7 4 18 10 W 1024,8 0,4
19.06.2018 05:00:00 12,1 11,3 11 6 - - W 1024,2 0,6
19.06.2018 04:00:00 12,2 11,2 7 4 25 14 WZW 1024,2 -
19.06.2018 03:00:00 12,6 11,3 14 8 25 14 W 1024,2 11
19.06.2018 02:00:00 12,4 11,0 11 6 - - W 1024,0 15
19.06.2018 01:00:00 12,7 11,5 7 4 14 8 WZW 1023,7 28
19.06.2018 00:00:00 13,1 11,8 7 4 14 8 WZW 1023,6 35
18.06.2018 23:00:00 13,6 12,3 7 4 - - WZW 1023,3 35
18.06.2018 22:00:00 15,8 13,4 11 6 25 14 ZW 1022,3 45
18.06.2018 21:00:00 17,1 13,9 7 4 25 14 ZW 1021,8 40
18.06.2018 20:00:00 17,0 13,4 11 6 - - ZW 1021,6 45
18.06.2018 19:00:00 18,1 13,5 14 8 25 14 ZW 1021,1 35
18.06.2018 18:00:00 17,4 13,0 14 8 32 18 ZW 1021,5 40
18.06.2018 17:00:00 17,3 13,3 14 8 - - ZW 1021,7 35
18.06.2018 16:00:00 16,9 13,0 14 8 29 16 ZW 1022,0 40
18.06.2018 15:00:00 15,7 12,9 14 8 29 16 ZW 1022,3 26
18.06.2018 14:00:00 17,3 13,1 14 8 - - ZW 1021,7 35
18.06.2018 13:00:00 16,6 12,5 14 8 25 14 ZW 1021,8 35
18.06.2018 12:00:00 15,9 11,9 14 8 29 16 ZW 1021,8 30
18.06.2018 11:00:00 15,9 11,5 14 8 - - ZW 1021,6 30
18.06.2018 10:00:00 14,8 11,0 14 8 29 16 WZW 1021,8 29
18.06.2018 09:00:00 14,3 10,4 14 8 25 14 ZW 1021,5 35
18.06.2018 08:00:00 13,0 9,6 11 6 - - ZW 1021,6 35
18.06.2018 07:00:00 12,1 9,2 7 4 14 8 ZW 1021,8 30
18.06.2018 06:00:00 11,7 9,1 7 4 14 8 ZZW 1021,7 35
18.06.2018 05:00:00 11,6 8,8 7 4 - - ZZW 1021,6 35
18.06.2018 04:00:00 11,2 8,9 7 4 11 6 ZW 1021,5 30
18.06.2018 03:00:00 11,0 8,7 7 4 11 6 ZW 1021,9 30
18.06.2018 02:00:00 10,9 9,1 4 2 - - WZW 1022,0 30
18.06.2018 01:00:00 11,5 9,1 7 4 11 6 ZW 1021,8 30
18.06.2018 00:00:00 11,2 9,2 7 4 11 6 ZZW 1021,8 30
17.06.2018 23:00:00 11,5 9,4 7 4 - - ZW 1021,7 30
17.06.2018 22:00:00 12,1 9,2 7 4 14 8 ZW 1021,0 30
17.06.2018 21:00:00 12,8 8,6 11 6 18 10 ZW 1020,7 40
17.06.2018 20:00:00 13,3 8,5 11 6 - - WZW 1020,7 35
17.06.2018 19:00:00 13,8 8,7 11 6 22 12 WZW 1020,3 35
17.06.2018 18:00:00 14,0 7,2 14 8 29 16 W 1020,0 40
17.06.2018 17:00:00 13,8 8,0 14 8 - - W 1020,1 35
17.06.2018 16:00:00 12,7 7,8 18 10 29 16 WZW 1020,2 35
17.06.2018 15:00:00 13,1 8,8 11 6 29 16 WZW 1019,8 35
17.06.2018 14:00:00 13,6 8,6 14 8 - - WZW 1019,3 35
17.06.2018 13:00:00 14,0 9,6 11 6 29 16 WZW 1019,0 35
17.06.2018 12:00:00 14,1 9,6 18 10 32 18 WZW 1018,8 35
17.06.2018 11:00:00 13,8 10,5 11 6 - - W 1018,7 19
17.06.2018 10:00:00 12,9 10,2 11 6 22 12 WZW 1018,9 23
17.06.2018 09:00:00 12,3 10,0 7 4 14 8 WZW 1018,8 20
17.06.2018 08:00:00 11,5 9,6 7 4 - - W 1018,6 21
17.06.2018 07:00:00 11,4 9,5 4 2 7 4 ZZW 1018,5 25
17.06.2018 06:00:00 10,4 8,7 4 2 7 4 Z 1018,7 25
17.06.2018 05:00:00 8,5 7,1 7 4 - - Z 1018,9 27
17.06.2018 04:00:00 8,5 6,9 0 0 11 6 N 1018,7 30
17.06.2018 03:00:00 10,1 7,7 7 4 14 8 NW 1018,3 30
17.06.2018 02:00:00 10,5 8,6 7 4 - - WNW 1018,2 30
17.06.2018 01:00:00 10,2 8,3 4 2 7 4 W 1018,2 30
17.06.2018 00:00:00 10,4 8,5 4 2 11 6 W 1018,2 29
16.06.2018 23:00:00 11,3 9,2 4 2 - - W 1018,0 30
16.06.2018 22:00:00 12,8 9,8 7 4 14 8 W 1017,1 35
16.06.2018 21:00:00 14,7 9,7 11 6 22 12 W 1016,4 35
16.06.2018 20:00:00 15,6 11,6 14 8 - - W 1016,0 30
16.06.2018 19:00:00 16,6 12,4 14 8 25 14 W 1015,3 35
16.06.2018 18:00:00 17,6 12,6 14 8 32 18 WZW 1014,9 40
16.06.2018 17:00:00 18,6 13,6 18 10 - - WZW 1014,7 30
16.06.2018 16:00:00 17,9 13,4 14 8 25 14 ZZW 1014,6 40
16.06.2018 15:00:00 17,3 13,2 14 8 32 18 ZW 1015,2 30
16.06.2018 14:00:00 15,6 13,0 11 6 - - ZW 1016,1 18
16.06.2018 13:00:00 16,9 11,5 11 6 22 12 ZW 1015,9 45
16.06.2018 12:00:00 17,7 11,8 11 6 22 12 ZZW 1015,6 35
16.06.2018 11:00:00 18,5 12,2 11 6 - - ZZW 1015,2 40
16.06.2018 10:00:00 16,9 11,3 7 4 18 10 ZZW 1015,8 30
16.06.2018 09:00:00 16,3 10,8 11 6 18 10 Z 1015,8 28
16.06.2018 08:00:00 14,8 9,8 7 4 - - ZO 1016,0 40
16.06.2018 07:00:00 12,9 8,8 7 4 11 6 OZO 1016,4 40
16.06.2018 06:00:00 11,0 8,4 0 0 7 4 N 1017,0 45
16.06.2018 05:00:00 12,9 8,3 4 2 - - N 1016,6 45
16.06.2018 04:00:00 13,3 9,0 4 2 7 4 ZZW 1016,8 45
16.06.2018 03:00:00 13,6 7,9 4 2 7 4 ZZO 1016,8 45
16.06.2018 02:00:00 12,8 8,1 4 2 - - ZZO 1017,4 45
16.06.2018 01:00:00 11,1 8,1 0 0 7 4 N 1017,8 45
16.06.2018 00:00:00 14,0 8,1 4 2 7 4 NW 1017,2 45
15.06.2018 23:00:00 13,9 8,8 4 2 - - WNW 1017,2 45
15.06.2018 22:00:00 14,8 9,2 4 2 7 4 W 1017,0 40
15.06.2018 21:00:00 16,9 10,1 4 2 14 8 W 1016,4 40
15.06.2018 20:00:00 18,6 8,4 7 4 - - WZW 1016,1 40
15.06.2018 19:00:00 19,2 7,8 11 6 22 12 W 1015,8 35
15.06.2018 18:00:00 19,5 9,1 11 6 25 14 W 1015,7 35
15.06.2018 17:00:00 19,0 8,8 11 6 - - WZW 1016,2 40
15.06.2018 16:00:00 19,1 11,1 11 6 29 16 ZW 1016,2 30
15.06.2018 15:00:00 18,5 10,2 11 6 22 12 WZW 1016,4 28
15.06.2018 14:00:00 17,7 11,1 11 6 - - W 1016,8 30
15.06.2018 13:00:00 16,7 11,4 11 6 22 12 WZW 1017,2 35
15.06.2018 12:00:00 16,0 10,4 11 6 22 12 ZW 1017,2 35
15.06.2018 11:00:00 15,2 11,3 11 6 - - WZW 1017,4 30
15.06.2018 10:00:00 13,8 10,1 11 6 18 10 W 1017,7 30
15.06.2018 09:00:00 13,5 10,5 7 4 11 6 WZW 1017,4 24
15.06.2018 08:00:00 12,3 9,3 4 2 - - ZW 1017,4 28
15.06.2018 07:00:00 11,1 10,2 4 2 7 4 ZW 1017,4 5
15.06.2018 06:00:00 11,5 10,5 4 2 7 4 ZZW 1017,3 -
15.06.2018 05:00:00 11,5 10,4 4 2 - - W 1017,0 12
15.06.2018 04:00:00 11,5 10,4 11 6 18 10 NW 1017,2 5
15.06.2018 03:00:00 12,2 11,3 7 4 22 12 WNW 1017,2 3,4
15.06.2018 02:00:00 12,5 11,7 4 2 - - ZW 1017,3 0,2
15.06.2018 01:00:00 12,4 11,6 7 4 14 8 ZW 1017,6 1,6
15.06.2018 00:00:00 12,3 11,5 7 4 14 8 ZZW 1017,7 2,2
14.06.2018 23:00:00 12,5 11,3 7 4 - - ZZW 1017,6 4,7
14.06.2018 22:00:00 12,6 11,3 7 4 18 10 ZZW 1017,2 12
14.06.2018 21:00:00 13,0 11,2 7 4 18 10 ZW 1016,8 15
14.06.2018 20:00:00 13,0 11,2 11 6 - - ZZW 1016,4 17
14.06.2018 19:00:00 13,3 11,6 7 4 14 8 ZW 1016,2 15
14.06.2018 18:00:00 13,1 11,7 7 4 14 8 ZZW 1016,2 14
14.06.2018 17:00:00 13,6 11,3 11 6 - - ZW 1016,0 13
14.06.2018 16:00:00 15,7 9,5 14 8 25 14 WZW 1015,5 30
14.06.2018 15:00:00 16,0 9,4 14 8 25 14 ZW 1015,5 35
14.06.2018 14:00:00 15,8 8,8 14 8 - - WZW 1015,9 30
14.06.2018 13:00:00 15,3 8,5 14 8 25 14 ZW 1016,2 40
14.06.2018 12:00:00 14,5 8,3 11 6 25 14 WZW 1016,5 30
14.06.2018 11:00:00 13,3 7,9 11 6 - - ZZW 1016,7 29
14.06.2018 10:00:00 12,9 9,0 11 6 22 12 ZZW 1016,7 25
14.06.2018 09:00:00 12,3 8,8 11 6 14 8 ZZW 1016,7 21
14.06.2018 08:00:00 11,0 8,4 4 2 - - Z 1017,2 19
14.06.2018 07:00:00 8,8 7,1 4 2 7 4 ZZW 1017,9 20
14.06.2018 06:00:00 8,1 5,5 4 2 7 4 Z 1018,1 24
14.06.2018 05:00:00 6,0 4,3 4 2 - - Z 1018,9 23
14.06.2018 04:00:00 7,0 5,2 4 2 7 4 Z 1018,9 24
14.06.2018 03:00:00 6,8 5,1 7 4 7 4 ZZO 1019,1 25
14.06.2018 02:00:00 8,2 6,1 0 0 - - N 1018,9 23
14.06.2018 01:00:00 6,9 5,4 0 0 4 2 N 1019,4 21
14.06.2018 00:00:00 7,9 5,7 4 2 7 4 N 1019,5 25
13.06.2018 23:00:00 8,4 6,7 4 2 - - NNO 1019,3 30
13.06.2018 22:00:00 11,5 7,5 4 2 11 6 NNW 1018,4 30
13.06.2018 21:00:00 12,1 7,8 7 4 18 10 NNO 1018,3 35
13.06.2018 20:00:00 12,8 7,9 11 6 - - NNW 1018,0 29
13.06.2018 19:00:00 13,1 7,9 11 6 18 10 NNW 1017,5 40
13.06.2018 18:00:00 13,0 8,2 11 6 22 12 N 1017,6 26
13.06.2018 17:00:00 13,2 7,1 11 6 - - N 1017,4 30
13.06.2018 16:00:00 12,0 8,2 11 6 25 14 NNW 1017,7 30

tt = temperatuur
td = dauwpunt
ff = windsnelheid
fx = windstoten
dd = windrichting
ppp = luchtdruk
vv = zicht

Weerstations in de omgeving